Weather History for Clarksburg, WV

Change the Weather History Date:

Thursday, December 15, 2011

  Actual Average Record
Temperature  
Mean Temperature 52 °F -  
Max Temperature 60 °F 44 °F 68 °F (1975)
Min Temperature 44 °F 25 °F 6 °F (1962)
Degree Days  
Heating Degree Days 13    
Growing Degree Days 2 (Base 50)    
Moisture  
Dew Point 49 °F    
Average Humidity 80    
Maximum Humidity 94    
Minimum Humidity 57    
Precipitation  
Precipitation 0.26 in - - ()
Sea Level Pressure  
Sea Level Pressure 29.95 in    
Wind  
Wind Speed 10 mph (SW)    
Max Wind Speed 22 mph    
Max Gust Speed 37 mph    
Visibility 8 miles    
Events Rain    
Averages and records for this station are not official NWS values.
T = Trace of Precipitation, MM = Missing Value Source: NWS Daily Summary

Daily Weather History Graph

Daily Weather History Graph

Search for Another Location

Airport:

Trip Planner

Search our weather history database for the weather conditions in past years. The results will help you decide how hot, cold, wet, or windy it might be!

Date:

Astronomy

Dec. 15, 2011 Rise Set
Actual Time 7:33 AM EST 4:58 PM EST
Civil Twilight 7:03 AM EST 5:28 PM EST
Nautical Twilight 6:29 AM EST 6:02 PM EST
Astronomical Twilight 5:56 AM EST 6:35 PM EST
Moon 10:21 PM EST (12/15) 10:50 AM EST (12/15)
Length of Visible Light 10h 25m
Length of Day
9h 25m
Waning Gibbous, 75% of the Moon is Illuminated
Dec 15
Waning Gibbous
Dec 17
Last Quarter
Dec 24
New
Jan 1
First Quarter
Jan 9
Full

Hourly Weather History & Observations

Time (EST) Temp. Windchill Dew Point Humidity Pressure Visibility Wind Dir Wind Speed Gust Speed Precip Events Conditions
12:53 AM 46.9 °F - 39.9 °F 77% 30.07 in 10.0 mi Calm Calm - N/A   Clear
1:53 AM 44.1 °F 42.5 °F 39.9 °F 85% 30.06 in 10.0 mi WNW 3.5 mph - N/A   Clear
2:53 AM 48.9 °F - 41.0 °F 74% 30.06 in 10.0 mi SSW 5.8 mph - N/A   Clear
3:53 AM 54.0 °F - 44.1 °F 69% 30.06 in 10.0 mi SW 6.9 mph - N/A   Overcast
4:53 AM 55.9 °F - 44.1 °F 64% 30.03 in 10.0 mi SSW 9.2 mph - N/A   Overcast
5:53 AM 59.0 °F - 44.1 °F 58% 30.01 in 10.0 mi SSW 15.0 mph 20.7 mph N/A   Overcast
6:53 AM 59.0 °F - 44.1 °F 58% 30.01 in 10.0 mi SSW 18.4 mph 26.5 mph N/A   Overcast
7:53 AM 60.1 °F - 45.0 °F 57% 30.00 in 10.0 mi SW 15.0 mph 24.2 mph N/A   Overcast
8:53 AM 57.2 °F - 48.2 °F 72% 29.99 in 7.0 mi SSW 17.3 mph 21.9 mph N/A Rain Light Rain
9:53 AM 55.9 °F - 50.0 °F 80% 29.97 in 10.0 mi SSW 8.1 mph 17.3 mph 0.03 in Rain Light Rain
10:53 AM 57.9 °F - 48.9 °F 72% 29.94 in 10.0 mi SSW 15.0 mph 23.0 mph 0.00 in Rain Light Rain
11:53 AM 57.9 °F - 48.9 °F 72% 29.92 in 9.0 mi SSW 13.8 mph 21.9 mph 0.01 in Rain Light Rain
12:53 PM 55.9 °F - 51.1 °F 84% 29.90 in 10.0 mi SW 11.5 mph - 0.02 in Rain Light Rain
1:53 PM 55.9 °F - 52.0 °F 87% 29.89 in 5.0 mi SW 12.7 mph - 0.01 in Rain Light Rain
2:53 PM 55.9 °F - 53.1 °F 90% 29.88 in 3.0 mi SSW 11.5 mph - 0.01 in Rain Light Rain
3:53 PM 55.9 °F - 53.1 °F 90% 29.88 in 10.0 mi SSW 11.5 mph - 0.00 in   Overcast
4:53 PM 55.9 °F - 53.1 °F 90% 29.88 in 2.0 mi SSW 10.4 mph - 0.00 in Rain Light Rain
5:16 PM 55.4 °F - 53.6 °F 94% 29.90 in 2.0 mi SSW 12.7 mph - 0.08 in Rain Light Rain
5:30 PM 55.4 °F - 53.6 °F 94% 29.90 in 2.0 mi SW 9.2 mph - 0.09 in Rain Light Rain
5:39 PM 55.4 °F - 53.6 °F 94% 29.90 in 2.0 mi SW 11.5 mph - 0.12 in Rain Rain
5:51 PM 55.4 °F - 53.6 °F 94% 29.90 in 1.0 mi SSW 10.4 mph - 0.16 in Rain Rain
5:53 PM 55.9 °F - 54.0 °F 93% 29.88 in 1.0 mi SW 11.5 mph - 0.16 in Rain Rain
5:56 PM 55.4 °F - 53.6 °F 94% 29.90 in 2.0 mi SW 10.4 mph - 0.01 in Rain Light Rain
5:59 PM 55.4 °F - 53.6 °F 94% 29.90 in 3.0 mi SW 9.2 mph - 0.01 in Rain Rain
6:15 PM 57.2 °F - 53.6 °F 88% 29.90 in 10.0 mi SW 13.8 mph - 0.01 in   Overcast
6:53 PM 59.0 °F - 53.1 °F 81% 29.88 in 7.0 mi SW 16.1 mph 26.5 mph 0.01 in   Overcast
7:53 PM 59.0 °F - 52.0 °F 78% 29.90 in 10.0 mi WSW 16.1 mph 25.3 mph N/A   Overcast
8:19 PM 59.0 °F - 51.8 °F 77% 29.92 in 10.0 mi SW 15.0 mph 25.3 mph N/A   Overcast
8:30 PM 59.0 °F - 51.8 °F 77% 29.92 in 10.0 mi SW 17.3 mph 26.5 mph N/A   Overcast
8:37 PM 57.2 °F - 51.8 °F 82% 29.93 in 6.0 mi WSW 21.9 mph 36.8 mph 0.01 in Rain Rain
8:53 PM 57.0 °F - 51.1 °F 81% 29.92 in 10.0 mi West 10.4 mph 26.5 mph 0.01 in   Overcast
9:53 PM 55.0 °F - 46.9 °F 74% 29.96 in 10.0 mi West 11.5 mph 24.2 mph N/A   Overcast
10:53 PM 53.1 °F - 45.0 °F 74% 29.99 in 10.0 mi West 12.7 mph 26.5 mph N/A   Overcast
11:00 PM 53.6 °F - 44.6 °F 72% 30.01 in 10.0 mi West 13.8 mph 21.9 mph N/A   Mostly Cloudy
11:28 PM 51.8 °F - 44.6 °F 76% 30.03 in 10.0 mi West 11.5 mph 20.7 mph N/A   Mostly Cloudy
11:53 PM 52.0 °F - 44.1 °F 74% 30.02 in 10.0 mi West 10.4 mph - N/A   Overcast